,

(GMT )
Banff

Weather History for CWZG - May, 2014

Change the Weather History Date:

Sunday, May 4, 2014

  Actual Average Record
Temperature  
Mean Temperature 29 °F -  
Max Temperature 32 °F - - ()
Min Temperature 26 °F - - ()
Degree Days  
Heating Degree Days 36    
Moisture  
Dew Point 28 °F    
Average Humidity 93    
Maximum Humidity 98    
Minimum Humidity 76    
Precipitation  
Precipitation 0.09 in - - ()
Sea Level Pressure  
Sea Level Pressure 29.91 in    
Wind  
Wind Speed 3 mph ()    
Max Wind Speed 8 mph    
Max Gust Speed -    
T = Trace of Precipitation, MM = Missing Value Source: Averaged Metar Reports

Daily Weather History Graph

Daily Weather History Graph

Search for Another Location

Airport or City:

Trip Planner

Search our weather history database for the weather conditions in past years. The results will help you decide how hot, cold, wet, or windy it might be!

Date:

Astronomy

May. 04, 2014 Rise Set
Actual Time 6:09 AM MDT 9:09 PM MDT
Civil Twilight 5:30 AM MDT 9:48 PM MDT
Nautical Twilight 4:40 AM MDT 10:39 PM MDT
Astronomical Twilight 3:37 AM MDT 11:43 PM MDT
Moon 10:35 AM MDT (5/4) 1:20 AM MDT (5/4)
Length of Visible Light 16h 17m
Length of Day
15h 00m
Waxing Crescent, 28% of the Moon is Illuminated
May 4
Waxing Crescent
May 6
First Quarter
May 14
Full
May 21
Last Quarter
May 28
New

Hourly Weather History & Observations

Time (MDT) Temp. Windchill Dew Point Humidity Pressure Visibility Wind Dir Wind Speed Gust Speed Precip Events Conditions
12:00 AM 27.0 °F - 25.9 °F 96% 29.99 in - ENE 2.3 mph - N/A   Unknown
1:00 AM 26.8 °F - 25.7 °F 96% 29.98 in - NE 2.3 mph - N/A   Unknown
2:00 AM 26.1 °F - 25.3 °F 97% 29.98 in - NE 2.3 mph - N/A   Unknown
3:00 AM 26.1 °F - 25.3 °F 97% 29.96 in - ENE 1.2 mph - 0.01 in   Unknown
4:00 AM 26.1 °F - 25.5 °F 98% 29.95 in - NNE 1.2 mph - N/A   Unknown
5:00 AM 26.1 °F - 25.5 °F 98% 29.94 in - NE 2.3 mph - N/A   Unknown
6:00 AM 26.2 °F - 25.7 °F 98% 29.93 in - NE 1.2 mph - N/A   Unknown
7:00 AM 26.8 °F - 26.1 °F 97% 29.93 in - NE 2.3 mph - N/A   Unknown
8:00 AM 27.7 °F - 26.1 °F 94% 29.93 in - NE 2.3 mph - 0.01 in   Unknown
9:00 AM 28.9 °F - 25.3 °F 86% 29.91 in - East 2.3 mph - N/A   Unknown
10:00 AM 30.2 °F - 25.2 °F 82% 29.90 in - East 2.3 mph - 0.01 in   Unknown
11:00 AM 32.0 °F 28.7 °F 25.3 °F 76% 29.88 in - ENE 3.5 mph - N/A   Unknown
12:00 PM 31.6 °F 26.0 °F 25.9 °F 79% 29.88 in - East 5.8 mph - N/A   Unknown
1:00 PM 31.5 °F 25.8 °F 28.2 °F 88% 29.87 in - NE 5.8 mph - N/A   Unknown
2:00 PM 31.8 °F 25.4 °F 29.1 °F 90% 29.87 in - NE 6.9 mph - N/A   Unknown
3:00 PM 31.5 °F 24.2 °F 29.5 °F 92% 29.87 in - ENE 8.1 mph - N/A   Unknown
4:00 PM 31.8 °F 26.2 °F 30.6 °F 95% 29.88 in - ENE 5.8 mph - 0.01 in   Unknown
5:00 PM 31.5 °F 25.8 °F 30.4 °F 96% 29.87 in - ENE 5.8 mph - 0.01 in   Unknown
6:00 PM 31.3 °F 25.6 °F 30.6 °F 97% 29.88 in - ENE 5.8 mph - 0.02 in   Unknown
7:00 PM 31.5 °F 25.8 °F 30.7 °F 97% 29.89 in - ENE 5.8 mph - 0.01 in   Unknown
8:00 PM 32.0 °F 26.4 °F 30.7 °F 95% 29.90 in - ENE 5.8 mph - N/A   Unknown
9:00 PM 31.6 °F 26.0 °F 30.6 °F 96% 29.91 in - NNE 5.8 mph - 0.01 in   Unknown
10:00 PM 31.8 °F 26.2 °F 30.2 °F 94% 29.92 in - ENE 5.8 mph - N/A   Unknown
11:00 PM 32.9 °F 28.5 °F 30.0 °F 89% 29.92 in - ENE 4.6 mph - N/A   Unknown